QPF
0.00 0.00 0.00 0.00 0.00 0.00 0.00 0.00 0.00 0.00 0.00 0.00 0.00 0.00 0.00 0.00 0.00 0.00 0.00 0.00 0.00 0.00 0.00 0.00 0.00 0.00 0.00 0.00 0.01 0.00 0.00 0.00 0.00 0.00 0.00 0.00 0.00 0.00 0.00 0.00 0.00 0.00 0.00 0.00 0.00
0.00 0.00 0.00 0.00 0.00 0.00 0.00 0.00 0.00 0.00 0.00 0.00 0.00 0.00 0.00 0.00 0.00 0.00 0.00 0.00 0.00 0.00 0.00 0.00 0.00 0.00 0.00 0.00 0.02 0.00 0.00 0.00 0.00 0.00 0.00 0.00 0.00 0.00 0.00 0.00 0.00 0.00 0.00 0.00 0.00
0.00 0.00 0.00 0.00 0.00 0.00 0.00 0.00 0.00 0.00 0.00 0.00 0.00 0.00 0.00 0.00 0.00 0.00 0.00 0.00 0.00 0.00 0.00 0.00 0.00 0.00 0.00 0.00 0.00 0.00 0.00 0.00 0.00 0.00 0.00 0.00 0.00 0.00 0.00 0.00 0.00 0.00 0.00 0.00 0.00
0.00 0.00 0.00 0.00 0.00 0.00 0.00 0.00 0.00 0.00 0.00 0.00 0.00 0.00 0.00 0.00 0.00 0.00 0.00 0.00 0.00 0.00 0.00 0.00 0.00 0.00 0.00 0.00 0.00 0.00 0.00 0.00 0.00 0.00 0.00 0.00 0.00 0.00 0.00 0.00 0.00 0.00 0.00 0.00 0.00
0.00 0.00 0.00 0.00 0.00 0.00 0.00 0.00 0.00 0.00 0.00 0.00 0.00 0.00 0.00 0.00 0.00 0.00 0.00 0.00 0.00 0.00 0.00 0.00 0.00 0.00 0.00 0.00 0.00 0.00 0.00 0.00 0.00 0.00 0.00 0.00 0.00 0.00 0.00 0.00 0.00 0.00 0.00 0.00 0.00
0.00 0.00 0.00 0.00 0.00 0.00 0.00 0.00 0.00 0.00 0.00 0.00 0.00 0.00 0.00 0.00 0.00 0.00 0.00 0.00 0.00 0.00 0.00 0.00 0.00 0.00 0.00 0.00 0.00 0.00 0.00 0.00 0.00 0.00 0.00 0.00 0.00 0.00 0.00 0.00 0.00 0.00 0.00 0.00 0.00
0.00 0.00 0.00 0.00 0.00 0.00 0.00 0.00 0.00 0.00 0.00 0.00 0.00 0.00 0.00 0.00 0.00 0.00 0.00 0.00 0.00 0.00 0.00 0.00 0.00 0.00 0.00 0.00 0.00 0.00 0.00 0.00 0.00 0.00 0.00 0.00 0.00 0.00 0.00 0.00 0.00 0.00 0.00 0.00 0.00
0.00 0.00 0.00 0.00 0.00 0.00 0.00 0.00 0.00 0.00 0.00 0.00 0.00 0.00 0.00 0.00 0.00 0.00 0.00 0.00 0.00 0.00 0.00 0.00 0.00 0.00 0.00 0.00 0.00 0.00 0.00 0.00 0.00 0.00 0.00 0.00 0.00 0.00 0.00 0.00 0.00 0.00 0.00 0.00 0.00
0.00 0.00 0.00 0.00 0.00 0.00 0.00 0.00 0.00 0.00 0.00 0.00 0.00 0.00 0.00 0.00 0.00 0.00 0.00 0.00 0.00 0.00 0.00 0.00 0.00 0.00 0.00 0.00 0.00 0.00 0.00 0.00 0.00 0.00 0.00 0.00 0.00 0.00 0.00 0.00 0.00 0.00 0.00 0.00 0.00
0.00 0.00 0.00 0.00 0.00 0.00 0.00 0.00 0.00 0.00 0.00 0.00 0.00 0.00 0.00 0.00 0.00 0.00 0.00 0.00 0.00 0.00 0.00 0.00 0.00 0.00 0.00 0.00 0.00 0.00 0.00 0.00 0.00 0.00 0.00 0.00 0.00 0.00 0.00 0.00 0.00 0.00 0.00 0.00 0.00
0.00 0.00 0.00 0.00 0.00 0.00 0.00 0.00 0.00 0.00 0.00 0.00 0.00 0.00 0.00 0.00 0.00 0.00 0.00 0.00 0.00 0.00 0.00 0.00 0.00 0.00 0.00 0.00 0.00 0.00 0.00 0.00 0.00 0.00 0.00 0.00 0.00 0.00 0.00 0.00 0.00 0.00 0.00 0.00 0.00
0.00 0.00 0.00 0.00 0.00 0.00 0.00 0.00 0.00 0.00 0.00 0.00 0.00 0.00 0.00 0.00 0.00 0.00 0.00 0.00 0.00 0.00 0.00 0.00 0.00 0.00 0.00 0.00 0.00 0.00 0.00 0.00 0.00 0.00 0.00 0.00 0.00 0.00 0.00 0.00 0.00 0.00 0.00 0.00 0.00
0.00 0.00 0.00 0.00 0.00 0.00 0.00 0.00 0.00 0.00 0.00 0.00 0.00 0.00 0.00 0.00 0.00 0.00 0.00 0.00 0.00 0.00 0.00 0.00 0.00 0.00 0.00 0.00 0.00 0.00 0.00 0.00 0.00 0.00 0.00 0.00 0.00 0.00 0.00 0.00 0.00 0.00 0.00 0.00 0.00
0.00 0.00 0.00 0.00 0.00 0.00 0.00 0.00 0.00 0.00 0.00 0.00 0.00 0.00 0.00 0.00 0.00 0.00 0.00 0.00 0.00 0.00 0.00 0.00 0.00 0.00 0.00 0.00 0.00 0.00 0.00 0.00 0.00 0.00 0.00 0.00 0.00 0.00 0.00 0.00 0.00 0.00 0.00 0.00 0.00
0.00 0.00 0.00 0.00 0.00 0.00 0.00 0.00 0.00 0.00 0.00 0.00 0.00 0.00 0.00 0.00 0.00 0.00 0.00 0.00 0.00 0.00 0.00 0.00 0.00 0.00 0.00 0.00 0.00 0.00 0.00 0.00 0.00 0.00 0.00 0.00 0.00 0.00 0.00 0.00 0.00 0.00 0.00 0.00 0.00
0.00 0.00 0.00 0.00 0.00 0.00 0.00 0.00 0.00 0.00 0.00 0.00 0.00 0.00 0.00 0.00 0.00 0.00 0.00 0.00 0.00 0.00 0.00 0.00 0.00 0.00 0.00 0.00 0.00 0.00 0.00 0.00 0.00 0.00 0.00 0.00 0.00 0.00 0.00 0.00 0.00 0.00 0.00 0.00 0.00
0.00 0.00 0.00 0.00 0.00 0.00 0.00 0.00 0.00 0.00 0.00 0.00 0.00 0.00 0.00 0.00 0.00 0.00 0.00 0.00 0.00 0.00 0.00 0.00 0.00 0.00 0.00 0.00 0.00 0.00 0.00 0.00 0.00 0.00 0.00 0.00 0.00 0.00 0.00 0.00 0.00 0.00 0.00 0.00 0.00
0.00 0.00 0.00 0.00 0.00 0.00 0.00 0.00 0.00 0.00 0.00 0.00 0.00 0.00 0.00 0.00 0.00 0.00 0.00 0.00 0.00 0.00 0.00 0.00 0.00 0.00 0.00 0.00 0.00 0.00 0.00 0.00 0.00 0.00 0.00 0.00 0.00 0.00 0.00 0.00 0.00 0.00 0.00 0.00 0.00
0.00 0.00 0.00 0.00 0.00 0.00 0.00 0.00 0.00 0.00 0.00 0.00 0.00 0.00 0.00 0.00 0.00 0.00 0.00 0.00 0.00 0.00 0.00 0.00 0.00 0.00 0.00 0.00 0.00 0.00 0.00 0.00 0.00 0.00 0.00 0.00 0.00 0.00 0.00 0.00 0.00 0.00 0.00 0.00 0.00
0.00 0.00 0.00 0.00 0.00 0.00 0.00 0.00 0.00 0.00 0.00 0.00 0.00 0.00 0.00 0.00 0.00 0.00 0.00 0.00 0.00 0.00 0.00 0.00 0.00 0.00 0.00 0.00 0.00 0.00 0.00 0.00 0.00 0.00 0.00 0.00 0.00 0.00 0.00 0.00 0.00 0.00 0.00 0.00 0.00
0.00 0.00 0.00 0.00 0.00 0.00 0.00 0.00 0.00 0.00 0.00 0.00 0.00 0.00 0.00 0.00 0.00 0.00 0.00 0.00 0.00 0.00 0.00 0.00 0.00 0.00 0.00 0.00 0.00 0.00 0.00 0.00 0.00 0.00 0.00 0.00 0.00 0.00 0.00 0.00 0.00 0.00 0.00 0.00 0.00
0.00 0.00 0.00 0.00 0.00 0.00 0.00 0.00 0.00 0.00 0.00 0.00 0.00 0.00 0.00 0.00 0.00 0.00 0.00 0.00 0.00 0.00 0.00 0.00 0.00 0.00 0.00 0.00 0.00 0.00 0.00 0.00 0.00 0.00 0.00 0.00 0.00 0.00 0.00 0.01 0.02 0.02 0.00 0.00 0.00
0.00 0.00 0.00 0.00 0.00 0.00 0.00 0.00 0.00 0.00 0.00 0.00 0.00 0.00 0.00 0.00 0.00 0.00 0.00 0.00 0.00 0.00 0.00 0.00 0.00 0.00 0.00 0.00 0.00 0.00 0.00 0.00 0.00 0.00 0.00 0.00 0.00 0.00 0.00 0.00 0.02 0.02 0.00 0.00 0.00
0.00 0.00 0.00 0.00 0.00 0.00 0.00 0.00 0.00 0.00 0.00 0.00 0.00 0.00 0.00 0.00 0.00 0.00 0.00 0.00 0.00 0.00 0.00 0.00 0.00 0.00 0.00 0.00 0.00 0.00 0.00 0.00 0.00 0.00 0.00 0.00 0.00 0.00 0.00 0.00 0.00 0.00 0.00 0.00 0.00
0.00 0.00 0.00 0.00 0.00 0.00 0.00 0.00 0.00 0.00 0.00 0.00 0.00 0.00 0.00 0.00 0.00 0.00 0.00 0.00 0.00 0.00 0.00 0.00 0.00 0.00 0.00 0.00 0.00 0.00 0.00 0.00 0.00 0.00 0.00 0.00 0.00 0.00 0.00 0.00 0.00 0.00 0.00 0.00 0.00
0.00 0.00 0.00 0.00 0.00 0.00 0.00 0.00 0.00 0.00 0.00 0.00 0.00 0.00 0.00 0.00 0.00 0.00 0.00 0.00 0.00 0.00 0.00 0.00 0.00 0.00 0.00 0.00 0.00 0.00 0.00 0.00 0.00 0.00 0.00 0.00 0.00 0.00 0.00 0.00 0.00 0.00 0.00 0.00 0.00
0.00 0.00 0.00 0.00 0.00 0.00 0.00 0.00 0.00 0.00 0.00 0.00 0.00 0.00 0.00 0.00 0.00 0.00 0.00 0.00 0.00 0.00 0.00 0.00 0.00 0.00 0.00 0.00 0.00 0.00 0.00 0.00 0.00 0.00 0.00 0.00 0.00 0.00 0.00 0.00 0.00 0.00 0.00 0.00 0.01
MSLP
1016.90 1016.43 1016.03 1015.55 1015.05 1014.67 1014.35 1013.99 1013.51 1013.05 1012.56 1012.06 1011.66 1011.12 1010.39 1009.64 1008.27 1007.28 1006.57 1005.05 1005.09 1005.29 1005.79 1006.13 1006.79 1006.39 1005.75 1006.29 1006.43 1007.22 1008.78 1009.12 1008.66 1008.15 1007.83 1007.60 1007.75 1008.44 1008.33 1008.91 1009.43 1009.90 1010.85 1011.77 1013.08
1017.03 1016.60 1016.09 1015.65 1015.19 1014.71 1014.30 1013.91 1013.45 1012.95 1012.50 1012.04 1011.59 1011.06 1010.46 1009.91 1009.09 1007.15 1004.87 1004.69 1004.66 1005.43 1006.08 1006.21 1006.64 1006.60 1006.53 1006.48 1006.75 1007.16 1008.64 1008.34 1007.66 1007.47 1007.35 1007.39 1007.64 1008.08 1008.83 1009.46 1009.75 1010.50 1011.09 1012.22 1013.21
1017.00 1016.60 1016.16 1015.67 1015.21 1014.69 1014.15 1013.72 1013.35 1012.93 1012.42 1011.99 1011.53 1010.97 1010.38 1010.11 1008.97 1005.41 1004.33 1004.49 1004.85 1005.30 1005.23 1005.77 1005.77 1006.09 1006.75 1006.90 1007.03 1007.27 1007.96 1007.47 1007.31 1007.33 1007.09 1007.48 1007.54 1007.91 1008.81 1009.57 1009.61 1010.39 1011.58 1012.47 1013.25
1017.03 1016.62 1016.16 1015.57 1015.09 1014.65 1014.08 1013.49 1013.06 1012.77 1012.34 1011.78 1011.39 1010.84 1010.21 1009.98 1007.79 1004.52 1004.30 1004.49 1004.87 1005.35 1005.41 1005.41 1005.73 1006.08 1006.69 1007.10 1007.48 1007.77 1007.74 1007.77 1007.43 1007.66 1007.29 1007.45 1007.29 1007.77 1008.14 1008.45 1009.02 1009.94 1011.00 1012.30 1013.29
1017.04 1016.61 1016.13 1015.64 1015.09 1014.48 1013.84 1013.23 1012.74 1012.29 1012.03 1011.56 1011.16 1010.72 1010.07 1009.23 1006.54 1004.30 1004.60 1004.89 1005.11 1005.37 1005.45 1005.48 1005.51 1005.77 1006.39 1006.57 1007.78 1007.83 1008.07 1008.06 1007.67 1007.55 1007.55 1007.19 1007.21 1007.53 1008.05 1008.37 1009.32 1010.29 1011.45 1012.34 1012.95
1017.02 1016.59 1016.08 1015.45 1014.86 1014.11 1013.40 1012.73 1012.22 1011.87 1011.55 1011.22 1010.90 1010.69 1010.16 1008.27 1004.68 1004.30 1004.56 1004.88 1004.89 1005.00 1005.27 1005.22 1005.34 1005.42 1006.07 1006.77 1007.65 1007.65 1007.96 1008.18 1008.08 1007.91 1007.85 1007.58 1007.23 1007.30 1008.41 1008.68 1009.71 1010.71 1011.45 1012.22 1012.77
1017.07 1016.38 1015.71 1015.06 1014.35 1013.70 1012.97 1012.19 1011.73 1011.43 1011.03 1010.84 1010.68 1010.44 1009.59 1006.26 1004.76 1004.61 1004.69 1004.65 1004.51 1004.69 1004.91 1004.87 1004.97 1005.29 1005.97 1007.17 1007.65 1008.07 1008.69 1008.69 1008.17 1008.31 1008.05 1007.73 1007.96 1008.31 1008.65 1009.03 1009.72 1010.65 1011.57 1011.97 1012.33
1016.77 1016.17 1015.54 1014.76 1013.93 1013.13 1012.35 1011.75 1011.10 1010.67 1010.50 1010.45 1010.38 1010.17 1008.21 1005.01 1004.81 1004.64 1004.48 1004.19 1004.28 1004.59 1004.65 1004.57 1004.79 1005.47 1006.48 1007.01 1007.53 1008.14 1008.64 1008.86 1008.31 1008.33 1008.18 1007.86 1008.65 1008.90 1009.05 1009.27 1009.81 1010.16 1010.75 1011.45 1011.96
1016.56 1015.92 1015.23 1014.47 1013.65 1012.70 1011.68 1011.04 1010.41 1009.92 1010.10 1010.24 1010.25 1009.65 1007.11 1004.62 1004.69 1003.86 1003.92 1004.02 1003.91 1004.37 1004.47 1004.49 1004.91 1006.15 1007.12 1007.64 1008.34 1008.73 1008.76 1008.70 1008.29 1007.97 1008.03 1008.34 1008.92 1008.81 1008.95 1009.35 1009.96 1010.02 1010.20 1010.63 1010.98
1016.48 1015.79 1015.04 1014.22 1013.29 1012.23 1011.03 1010.25 1010.01 1010.11 1010.15 1010.06 1009.63 1009.35 1006.31 1004.95 1004.18 1003.77 1003.76 1003.85 1003.99 1004.15 1004.46 1004.83 1005.89 1006.93 1008.02 1008.26 1008.55 1008.58 1008.51 1008.10 1008.10 1007.88 1008.13 1008.44 1008.39 1008.49 1008.86 1009.41 1009.73 1009.90 1009.99 1010.15 1010.41
1016.37 1015.67 1014.94 1013.96 1013.04 1012.01 1010.73 1010.07 1010.47 1010.13 1009.73 1009.01 1008.14 1007.33 1005.77 1004.64 1003.76 1003.40 1003.48 1003.95 1004.37 1005.01 1005.43 1005.82 1006.60 1007.22 1007.68 1007.81 1007.39 1007.81 1007.96 1007.77 1007.67 1007.41 1007.73 1008.23 1008.41 1008.53 1008.49 1008.98 1009.37 1009.57 1009.78 1009.85 1009.92
1016.27 1015.57 1014.79 1013.72 1012.58 1011.84 1011.54 1011.32 1010.91 1011.14 1009.68 1007.47 1006.55 1006.09 1005.22 1004.91 1004.95 1003.63 1003.34 1004.21 1004.87 1005.66 1006.06 1006.66 1006.64 1006.28 1006.91 1007.19 1007.23 1007.33 1007.73 1007.36 1007.12 1007.06 1007.36 1007.83 1007.90 1007.81 1007.89 1007.75 1008.29 1008.76 1009.28 1009.33 1009.56
1016.24 1015.54 1014.72 1013.63 1012.33 1012.10 1012.11 1011.05 1010.35 1010.40 1009.91 1006.38 1005.49 1004.84 1004.42 1004.70 1004.44 1003.52 1003.42 1004.03 1004.93 1005.88 1006.27 1006.70 1006.20 1005.98 1006.42 1006.97 1007.35 1007.51 1007.66 1007.44 1007.42 1007.35 1007.39 1007.65 1007.89 1007.87 1007.76 1007.75 1007.85 1008.04 1008.42 1008.80 1009.16
1016.10 1015.54 1014.95 1013.82 1012.55 1012.72 1011.35 1010.26 1009.96 1009.77 1009.23 1006.23 1004.66 1003.35 1003.55 1003.62 1003.65 1002.84 1002.95 1003.62 1004.75 1005.41 1006.42 1006.43 1005.63 1005.75 1006.09 1006.40 1006.81 1007.32 1006.97 1007.14 1007.30 1008.21 1008.34 1008.15 1009.36 1008.08 1007.50 1007.43 1007.35 1007.21 1007.59 1008.06 1008.71
1015.93 1015.47 1015.16 1014.95 1014.43 1013.21 1010.69 1009.89 1009.54 1009.29 1008.48 1004.85 1003.61 1002.50 1002.69 1003.25 1003.17 1002.77 1002.71 1003.24 1004.43 1005.18 1005.95 1005.65 1005.41 1005.49 1005.67 1005.29 1006.03 1006.14 1006.56 1007.01 1007.29 1009.21 1009.31 1009.51 1009.88 1007.81 1007.63 1007.21 1007.10 1006.62 1006.75 1007.11 1007.55
1015.56 1015.19 1015.09 1014.80 1014.59 1011.77 1010.78 1010.14 1009.63 1009.79 1007.09 1004.08 1002.92 1002.69 1003.03 1002.99 1003.01 1002.72 1002.70 1002.99 1004.03 1005.12 1005.41 1005.31 1004.79 1004.89 1004.47 1004.43 1005.25 1005.52 1006.76 1007.80 1008.88 1009.82 1010.81 1009.81 1009.93 1008.48 1007.51 1005.89 1005.47 1005.98 1005.75 1006.43 1006.90
1015.04 1014.48 1014.86 1014.16 1012.33 1010.98 1010.83 1010.50 1010.63 1009.19 1006.10 1004.44 1003.32 1002.93 1003.09 1003.40 1003.40 1003.25 1003.45 1004.00 1004.76 1005.57 1006.14 1005.51 1004.89 1004.18 1003.81 1004.35 1004.80 1006.13 1007.70 1009.59 1010.78 1011.19 1010.72 1009.91 1009.94 1007.66 1005.70 1005.01 1004.56 1004.64 1004.79 1005.60 1006.19
1014.50 1013.61 1012.59 1011.97 1011.25 1011.37 1011.33 1011.17 1010.76 1008.20 1006.43 1004.58 1003.79 1003.58 1003.60 1003.63 1003.63 1003.76 1004.09 1004.65 1004.95 1005.41 1006.56 1006.11 1005.20 1004.19 1003.80 1004.05 1004.69 1005.95 1007.15 1008.67 1010.33 1011.44 1010.67 1009.93 1008.74 1006.29 1005.18 1004.42 1004.10 1004.19 1004.37 1005.21 1005.65
1014.02 1012.94 1012.45 1010.32 1010.74 1011.31 1011.65 1011.72 1009.88 1008.12 1006.43 1005.31 1003.97 1003.90 1003.95 1003.64 1003.66 1003.94 1004.32 1004.46 1004.41 1004.87 1005.79 1006.11 1005.26 1004.09 1003.56 1003.42 1004.15 1005.70 1006.79 1007.51 1009.43 1011.01 1010.96 1009.65 1007.97 1006.39 1005.70 1005.18 1004.75 1004.59 1004.56 1005.08 1005.04
1014.69 1013.75 1011.67 1009.87 1010.27 1010.74 1011.39 1011.23 1009.60 1007.79 1006.46 1005.54 1005.01 1004.46 1004.34 1003.81 1003.89 1003.99 1004.12 1003.21 1003.89 1004.05 1004.19 1005.39 1005.29 1004.16 1003.40 1003.24 1003.91 1004.49 1005.75 1007.64 1009.08 1010.71 1011.08 1009.86 1008.94 1008.02 1007.09 1006.70 1005.98 1005.67 1005.47 1005.47 1005.38
1014.69 1013.56 1010.18 1009.83 1010.47 1010.91 1011.63 1010.78 1009.10 1007.46 1006.47 1005.89 1005.26 1005.13 1004.43 1003.81 1003.63 1003.75 1003.37 1002.55 1002.68 1003.66 1004.10 1005.11 1005.50 1004.73 1003.89 1003.94 1003.88 1004.89 1005.78 1007.54 1008.79 1009.92 1010.59 1010.27 1009.31 1008.45 1008.31 1008.01 1007.99 1006.67 1006.27 1005.34 1005.19
1014.91 1013.65 1010.50 1010.29 1011.08 1011.51 1011.09 1009.73 1008.36 1007.21 1006.41 1005.84 1005.21 1004.82 1004.15 1003.71 1003.39 1003.16 1002.77 1001.79 1001.21 1002.48 1004.01 1004.53 1005.47 1005.73 1004.55 1003.74 1003.63 1003.98 1005.04 1006.54 1008.80 1009.99 1010.28 1009.97 1008.97 1008.46 1008.37 1007.61 1007.35 1008.21 1007.52 1005.89 1005.35
1015.73 1013.98 1010.73 1010.55 1011.29 1011.46 1010.35 1009.39 1008.25 1007.18 1006.19 1005.48 1004.80 1003.97 1003.27 1003.29 1003.11 1002.09 1001.16 999.68 1000.89 1001.97 1002.68 1003.92 1005.17 1005.85 1004.82 1003.93 1003.47 1003.58 1004.64 1005.85 1007.06 1008.29 1009.57 1009.87 1008.86 1008.31 1008.24 1007.49 1007.67 1009.93 1006.88 1006.76 1006.29
1016.25 1014.82 1012.34 1011.31 1011.39 1011.08 1010.61 1009.28 1008.13 1006.59 1005.73 1004.91 1004.13 1003.38 1003.07 1002.57 1001.95 1001.23 1000.39 999.46 999.85 1000.51 1001.57 1002.69 1004.95 1005.14 1005.08 1004.29 1003.98 1003.59 1004.21 1005.21 1006.11 1007.83 1008.97 1008.76 1008.27 1008.41 1008.53 1008.42 1008.15 1007.16 1006.58 1006.28 1006.29
1016.47 1015.40 1014.17 1012.86 1012.33 1011.73 1010.74 1009.12 1008.20 1007.15 1005.71 1004.69 1003.76 1003.16 1003.10 1002.34 1001.45 1000.73 999.85 999.61 999.94 1000.32 1001.81 1002.49 1004.33 1004.59 1004.28 1004.33 1003.96 1003.89 1004.05 1004.78 1005.57 1006.07 1006.97 1007.17 1007.83 1007.50 1007.67 1007.37 1006.92 1006.29 1006.00 1006.21 1006.58
1016.59 1015.91 1014.67 1013.71 1012.63 1011.70 1010.47 1009.28 1008.56 1007.70 1006.80 1004.89 1004.05 1002.79 1002.38 1002.17 1000.87 1000.24 999.97 999.69 999.97 1000.61 1001.63 1002.94 1004.18 1004.61 1004.87 1004.13 1003.87 1004.09 1004.07 1004.23 1004.68 1005.51 1006.20 1006.96 1007.54 1007.21 1007.44 1007.26 1006.71 1006.29 1006.05 1006.76 1006.81
1016.15 1015.83 1015.55 1013.97 1012.91 1012.01 1010.88 1010.06 1008.95 1008.03 1005.83 1004.86 1004.03 1003.31 1001.73 999.96 999.68 999.42 999.55 999.56 999.86 1000.73 1002.17 1003.25 1004.32 1005.53 1005.70 1004.60 1003.92 1004.09 1004.20 1004.40 1004.87 1005.39 1005.75 1006.93 1006.57 1007.23 1008.11 1007.86 1007.50 1007.04 1006.90 1006.88 1006.97
Thickness
5781 5787 5791 5796 5801 5805 5808 5812 5816 5819 5823 5826 5829 5833 5838 5845 5856 5863 5858 5878 5882 5882 5877 5869 5856 5857 5863 5849 5853 5849 5797 5784 5795 5798 5803 5818 5807 5812 5821 5806 5808 5810 5799 5798 5794
5776 5782 5788 5793 5798 5803 5807 5811 5816 5820 5824 5827 5831 5834 5838 5843 5847 5853 5883 5886 5888 5880 5868 5856 5844 5849 5841 5844 5844 5832 5799 5803 5825 5822 5816 5820 5818 5813 5804 5799 5800 5796 5801 5798 5793
5772 5777 5783 5789 5794 5800 5806 5811 5815 5819 5824 5827 5831 5835 5840 5842 5845 5865 5889 5888 5885 5881 5878 5867 5861 5851 5833 5839 5836 5832 5811 5827 5828 5831 5834 5823 5822 5824 5803 5791 5804 5793 5788 5789 5790
5767 5772 5778 5785 5791 5796 5803 5809 5815 5818 5822 5828 5832 5836 5841 5842 5825 5880 5889 5887 5884 5880 5872 5864 5852 5837 5827 5820 5831 5815 5828 5827 5828 5831 5830 5824 5832 5820 5817 5815 5824 5814 5805 5794 5786
5762 5768 5773 5779 5786 5793 5800 5807 5813 5819 5822 5827 5832 5836 5841 5836 5847 5888 5886 5883 5882 5875 5863 5856 5845 5841 5824 5832 5824 5818 5818 5824 5833 5835 5833 5839 5832 5825 5821 5827 5826 5817 5807 5796 5792
5757 5762 5768 5775 5782 5790 5798 5807 5813 5818 5823 5827 5831 5834 5837 5825 5885 5888 5886 5881 5878 5873 5862 5861 5851 5854 5836 5830 5818 5829 5825 5822 5826 5830 5832 5830 5834 5834 5821 5828 5819 5810 5805 5801 5796
5752 5759 5766 5772 5780 5788 5796 5805 5812 5817 5822 5826 5829 5833 5832 5844 5883 5885 5885 5880 5882 5876 5862 5868 5867 5853 5847 5826 5834 5825 5806 5816 5827 5826 5826 5835 5819 5814 5826 5825 5815 5810 5805 5804 5803
5750 5756 5762 5770 5778 5787 5795 5803 5810 5817 5821 5824 5827 5830 5827 5878 5879 5879 5883 5881 5883 5879 5874 5876 5874 5857 5844 5844 5835 5818 5811 5792 5821 5825 5829 5831 5793 5816 5826 5822 5812 5811 5808 5806 5804
5747 5753 5760 5767 5775 5784 5794 5802 5810 5816 5818 5820 5822 5826 5826 5876 5864 5880 5883 5873 5879 5875 5874 5877 5868 5842 5838 5817 5804 5806 5788 5796 5812 5831 5828 5823 5803 5823 5829 5822 5810 5813 5814 5812 5811
5743 5749 5756 5764 5771 5782 5793 5802 5807 5809 5811 5814 5820 5813 5842 5847 5865 5875 5881 5878 5868 5866 5856 5853 5835 5815 5806 5800 5777 5792 5797 5805 5803 5823 5826 5814 5816 5826 5826 5820 5814 5813 5818 5817 5815
5740 5746 5752 5761 5768 5778 5791 5798 5793 5795 5803 5808 5817 5821 5834 5856 5872 5868 5874 5865 5860 5846 5823 5832 5815 5795 5808 5813 5825 5816 5811 5806 5817 5833 5823 5814 5814 5819 5827 5823 5817 5817 5816 5819 5821
5736 5742 5749 5759 5768 5774 5778 5778 5780 5781 5775 5812 5821 5825 5840 5847 5831 5852 5870 5842 5836 5816 5824 5810 5801 5827 5828 5821 5823 5821 5812 5809 5824 5836 5829 5821 5818 5829 5830 5834 5830 5825 5821 5824 5826
5731 5738 5745 5756 5766 5768 5767 5775 5785 5784 5770 5801 5819 5823 5832 5838 5826 5836 5853 5840 5825 5812 5812 5796 5818 5833 5825 5817 5809 5809 5802 5807 5810 5826 5832 5824 5811 5821 5832 5836 5836 5837 5835 5832 5828
5727 5733 5739 5750 5761 5757 5768 5780 5784 5784 5746 5780 5805 5822 5834 5838 5824 5852 5855 5842 5826 5810 5804 5809 5828 5826 5816 5811 5812 5792 5820 5824 5821 5804 5785 5822 5767 5806 5825 5828 5834 5842 5839 5835 5831
5724 5729 5733 5736 5740 5749 5773 5780 5784 5781 5719 5799 5806 5841 5832 5820 5827 5836 5854 5839 5812 5814 5811 5806 5817 5815 5812 5821 5824 5813 5828 5823 5826 5782 5794 5795 5773 5803 5817 5821 5826 5840 5844 5845 5842
5721 5727 5729 5732 5736 5760 5769 5774 5777 5730 5722 5787 5809 5803 5805 5813 5819 5830 5834 5843 5831 5811 5816 5814 5835 5824 5825 5835 5828 5839 5814 5803 5792 5780 5754 5785 5781 5790 5806 5831 5845 5845 5852 5849 5847
5721 5728 5725 5732 5747 5763 5766 5763 5722 5710 5777 5780 5790 5800 5795 5792 5804 5813 5810 5802 5788 5772 5782 5802 5813 5833 5842 5825 5833 5810 5787 5741 5748 5745 5749 5783 5773 5801 5837 5848 5856 5857 5859 5855 5855
5720 5730 5738 5746 5755 5756 5755 5737 5714 5748 5756 5789 5793 5786 5779 5788 5794 5797 5792 5782 5799 5791 5763 5768 5769 5815 5837 5825 5811 5803 5791 5751 5742 5729 5758 5781 5774 5811 5846 5863 5867 5867 5866 5858 5856
5719 5730 5733 5756 5754 5752 5740 5709 5723 5740 5770 5773 5784 5775 5775 5788 5794 5792 5779 5780 5795 5796 5774 5759 5777 5822 5833 5839 5828 5807 5791 5805 5759 5755 5755 5772 5800 5832 5841 5849 5853 5856 5861 5855 5859
5708 5714 5732 5753 5752 5749 5727 5713 5733 5756 5771 5773 5761 5773 5762 5777 5782 5782 5777 5803 5799 5807 5813 5792 5775 5812 5828 5836 5831 5820 5814 5778 5759 5749 5751 5764 5783 5786 5814 5829 5843 5844 5847 5849 5853
5702 5709 5741 5748 5744 5732 5712 5714 5739 5761 5771 5764 5766 5763 5764 5777 5780 5775 5788 5807 5814 5804 5810 5795 5785 5794 5819 5812 5805 5803 5790 5773 5771 5757 5742 5747 5770 5797 5802 5816 5814 5835 5841 5847 5850
5688 5697 5732 5737 5716 5707 5714 5729 5750 5757 5770 5767 5773 5769 5775 5782 5777 5775 5783 5808 5828 5812 5795 5802 5776 5766 5787 5823 5830 5821 5804 5789 5758 5767 5758 5760 5773 5810 5809 5825 5830 5816 5829 5849 5856
5673 5684 5722 5726 5699 5705 5720 5734 5748 5749 5759 5768 5776 5787 5793 5787 5776 5789 5801 5840 5829 5817 5804 5805 5774 5753 5776 5802 5823 5820 5809 5794 5781 5772 5756 5758 5772 5814 5812 5826 5824 5794 5835 5837 5843
5664 5671 5694 5708 5705 5713 5715 5724 5735 5761 5765 5776 5782 5791 5789 5787 5792 5799 5808 5838 5837 5834 5828 5820 5775 5775 5756 5786 5801 5809 5811 5801 5795 5766 5764 5771 5793 5803 5809 5811 5817 5830 5838 5839 5841
5650 5660 5675 5680 5693 5700 5713 5728 5732 5736 5764 5777 5781 5787 5787 5784 5793 5801 5819 5829 5834 5832 5822 5819 5788 5789 5795 5800 5810 5806 5805 5803 5800 5801 5793 5799 5790 5806 5813 5821 5833 5841 5845 5839 5835
5641 5648 5658 5671 5683 5696 5707 5722 5726 5735 5745 5762 5771 5787 5789 5782 5800 5803 5815 5822 5823 5834 5824 5810 5786 5800 5788 5805 5807 5797 5804 5804 5807 5808 5805 5796 5800 5816 5818 5822 5833 5837 5840 5832 5831
5636 5639 5643 5661 5673 5685 5693 5706 5719 5731 5756 5771 5779 5777 5786 5812 5821 5832 5832 5832 5832 5823 5809 5805 5787 5773 5775 5796 5800 5781 5797 5800 5801 5807 5806 5792 5813 5810 5806 5812 5823 5827 5830 5825 5829